,,,PA_Meas_PMT16A,,PR_Meas_QMR101_102,,RH_Meas_QMH101,,SR_Meas_QMS101,,TA_Meas_QMH101,,GenWind,,GenWind,
date,time,status,PA,status,PR,status,RH,status,SR,status,TA,status,DirAvg,status,SpdAvg,
2008-05-19, 00:00:05,VALID,1010.3,VALID,0,VALID,94.9101,VALID,0,VALID,23.4407,VALID,21,VALID,0,
2008-05-19, 00:01:05,VALID,1010.31,VALID,0,VALID,94.9025,VALID,0,VALID,23.4212,VALID,21,VALID,0,
2008-05-19, 00:02:05,VALID,1010.31,VALID,0,VALID,94.9559,VALID,0,VALID,23.4,VALID,21,VALID,0,
2008-05-19, 00:03:05,VALID,1010.31,VALID,0,VALID,94.9711,VALID,0,VALID,23.4017,VALID,21,VALID,0,
2008-05-19, 00:04:05,VALID,1010.3,VALID,0,VALID,94.9635,VALID,0,VALID,23.3805,VALID,21,VALID,0,
2008-05-19, 00:05:05,VALID,1010.26,VALID,0,VALID,94.933,VALID,0,VALID,23.3805,VALID,21,VALID,0.179688,
2008-05-19, 00:06:05,VALID,1010.25,VALID,0,VALID,94.994,VALID,0,VALID,23.3628,VALID,21,VALID,0.304297,
2008-05-19, 00:07:05,VALID,1010.24,VALID,0,VALID,95.0855,VALID,0,VALID,23.361,VALID,21,VALID,0.336328,
2008-05-19, 00:08:05,VALID,1010.21,VALID,0,VALID,95.1084,VALID,0,VALID,23.3823,VALID,21,VALID,0.351563,
2008-05-19, 00:09:05,VALID,1010.18,VALID,0,VALID,95.1084,VALID,0,VALID,23.3628,VALID,21,VALID,0.286719,
2008-05-19, 00:10:05,VALID,1010.14,VALID,0,VALID,95.0855,VALID,0,VALID,23.322,VALID,21,VALID,0.197266,
2008-05-19, 00:11:05,VALID,1010.16,VALID,0,VALID,95.1084,VALID,0,VALID,23.3238,VALID,21,VALID,0.335156,
2008-05-19, 00:12:05,VALID,1010.15,VALID,0,VALID,95.1542,VALID,0,VALID,23.3433,VALID,21,VALID,0.155859,
2008-05-19, 00:13:05,VALID,1010.16,VALID,0,VALID,95.1847,VALID,0,VALID,23.3433,VALID,21,VALID,0.261719,
2008-05-19, 00:14:05,VALID,1010.13,VALID,0,VALID,95.238,VALID,0.105969,VALID,23.3433,VALID,21,VALID,0.227344,
2008-05-19, 00:15:05,VALID,1010.07,VALID,0,VALID,95.2152,VALID,0,VALID,23.322,VALID,21,VALID,0.233984,
2008-05-19, 00:16:05,VALID,1010.05,VALID,0,VALID,95.1847,VALID,0,VALID,23.2831,VALID,22,VALID,0.347266,
2008-05-19, 00:17:05,VALID,1010.04,VALID,0,VALID,95.2457,VALID,0,VALID,23.322,VALID,23,VALID,0.301953,
2008-05-19, 00:18:05,VALID,1010,VALID,0,VALID,95.2609,VALID,0,VALID,23.3238,VALID,23,VALID,0.25625,
2008-05-19, 00:19:05,VALID,1009.99,VALID,0,VALID,95.2304,VALID,0,VALID,23.3043,VALID,23,VALID,0.225781,
2008-05-19, 00:20:05,VALID,1010,VALID,0,VALID,95.2457,VALID,0,VALID,23.2831,VALID,23,VALID,0.25625,
2008-05-19, 00:21:05,VALID,1009.99,VALID,0,VALID,95.2685,VALID,0,VALID,23.2831,VALID,23,VALID,0.144141,
2008-05-19, 00:22:05,VALID,1009.98,VALID,0,VALID,95.3448,VALID,0,VALID,23.3026,VALID,23,VALID,0.155859,
2008-05-19, 00:23:05,VALID,1009.97,VALID,0,VALID,95.3067,VALID,0,VALID,23.2831,VALID,23,VALID,0.105469,
2008-05-19, 00:24:05,VALID,1009.94,VALID,0,VALID,95.299,VALID,0,VALID,23.3043,VALID,26,VALID,0.260547,
2008-05-19, 00:25:05,VALID,1009.91,VALID,0,VALID,95.2533,VALID,0,VALID,23.2848,VALID,26,VALID,0.266406,
2008-05-19, 00:26:05,VALID,1009.84,VALID,0,VALID,95.2457,VALID,0,VALID,23.2654,VALID,26,VALID,0.382031,
2008-05-19, 00:27:05,VALID,1009.84,VALID,0,VALID,95.238,VALID,0,VALID,23.2459,VALID,26,VALID,0.408594,
2008-05-19, 00:28:05,VALID,1009.84,VALID,0,VALID,95.238,VALID,0,VALID,23.2282,VALID,43,VALID,0.426562,
2008-05-19, 00:29:05,VALID,1009.85,VALID,0,VALID,95.2533,VALID,0,VALID,23.2069,VALID,46,VALID,0.226172,
2008-05-19, 00:30:05,VALID,1009.83,VALID,0,VALID,95.3143,VALID,0,VALID,23.2282,VALID,46,VALID,0.157813,
2008-05-19, 00:31:05,VALID,1009.85,VALID,0,VALID,95.299,VALID,0,VALID,23.1874,VALID,46,VALID,0,
2008-05-19, 00:32:05,VALID,1009.82,VALID,0,VALID,95.3143,VALID,0,VALID,23.2087,VALID,46,VALID,0,
2008-05-19, 00:33:05,VALID,1009.83,VALID,0,VALID,95.3143,VALID,0,VALID,23.1874,VALID,46,VALID,0,
2008-05-19, 00:34:05,VALID,1009.83,VALID,0,VALID,95.3295,VALID,0,VALID,23.1892,VALID,46,VALID,0,
2008-05-19, 00:35:05,VALID,1009.81,VALID,0,VALID,95.4058,VALID,0,VALID,23.1874,VALID,43,VALID,0.528125,
2008-05-19, 00:36:05,VALID,1009.8,VALID,0,VALID,95.3982,VALID,0,VALID,23.2069,VALID,37,VALID,0.336328,
2008-05-19, 00:37:05,VALID,1009.76,VALID,0,VALID,95.3372,VALID,0,VALID,23.1679,VALID,37,VALID,0.432422,
2008-05-19, 00:38:05,VALID,1009.8,VALID,0,VALID,95.2609,VALID,0,VALID,23.129,VALID,37,VALID,0.334375,
2008-05-19, 00:39:05,VALID,1009.75,VALID,0,VALID,95.2304,VALID,0,VALID,23.1095,VALID,37,VALID,0.150391,
2008-05-19, 00:40:05,VALID,1009.73,VALID,0,VALID,95.2304,VALID,0,VALID,23.09,VALID,37,VALID,0.128125,
2008-05-19, 00:41:05,VALID,1009.73,VALID,0,VALID,95.2533,VALID,0,VALID,23.0705,VALID,37,VALID,0,
2008-05-19, 00:42:05,VALID,1009.68,VALID,0,VALID,95.2609,VALID,0,VALID,23.0511,VALID,37,VALID,0,
2008-05-19, 00:43:05,VALID,1009.66,VALID,0,VALID,95.2533,VALID,0,VALID,23.0528,VALID,37,VALID,0,
2008-05-19, 00:44:05,VALID,1009.67,VALID,0,VALID,95.2228,VALID,0,VALID,22.9909,VALID,37,VALID,0,
2008-05-19, 00:45:05,VALID,1009.65,VALID,0,VALID,95.2457,VALID,0,VALID,22.9926,VALID,37,VALID,0,
2008-05-19, 00:46:05,VALID,1009.65,VALID,0,VALID,95.2609,VALID,0,VALID,22.9926,VALID,36,VALID,0,
2008-05-19, 00:47:05,VALID,1009.64,VALID,0,VALID,95.3448,VALID,0,VALID,23.0121,VALID,37,VALID,0.23125,
2008-05-19, 00:48:05,VALID,1009.64,VALID,0,VALID,95.3448,VALID,0,VALID,23.0138,VALID,37,VALID,0.0839844,
2008-05-19, 00:49:05,VALID,1009.6,VALID,0,VALID,95.4211,VALID,0,VALID,22.9926,VALID,37,VALID,0.202734,
2008-05-19, 00:50:05,VALID,1009.57,VALID,0,VALID,95.4592,VALID,0,VALID,23.0723,VALID,37,VALID,0.162109,
2008-05-19, 00:51:05,VALID,1009.55,VALID,0,VALID,95.4668,VALID,0,VALID,23.0918,VALID,37,VALID,0.217187,
2008-05-19, 00:52:05,VALID,1009.54,VALID,0,VALID,95.4973,VALID,0,VALID,23.0705,VALID,39,VALID,0.371484,
2008-05-19, 00:53:05,VALID,1009.51,VALID,0,VALID,95.5126,VALID,0,VALID,23.09,VALID,49,VALID,0.278516,
2008-05-19, 00:54:05,VALID,1009.45,VALID,0,VALID,95.4821,VALID,0,VALID,23.0705,VALID,49,VALID,0.270703,
2008-05-19, 00:55:05,VALID,1009.43,VALID,0,VALID,95.4973,VALID,0,VALID,23.0705,VALID,49,VALID,0.167969,
2008-05-19, 00:56:05,VALID,1009.41,VALID,0,VALID,95.4744,VALID,0,VALID,23.0918,VALID,49,VALID,0.16875,
2008-05-19, 00:57:05,VALID,1009.38,VALID,0,VALID,95.4363,VALID,0,VALID,23.0511,VALID,49,VALID,0.186719,
2008-05-19, 00:58:05,VALID,1009.36,VALID,0,VALID,95.4058,VALID,0,VALID,23.0723,VALID,49,VALID,0.126172,
2008-05-19, 00:59:05,VALID,1009.35,VALID,0,VALID,95.4134,VALID,0,VALID,23.0316,VALID,49,VALID,0,
2008-05-19, 01:00:05,VALID,1009.33,VALID,0,VALID,95.4058,VALID,0,VALID,23.0121,VALID,49,VALID,0.0730469,
2008-05-19, 01:01:05,VALID,1009.31,VALID,0,VALID,95.4592,VALID,0,VALID,23.0121,VALID,49,VALID,0,
2008-05-19, 01:02:05,VALID,1009.26,VALID,0,VALID,95.4439,VALID,0,VALID,23.0333,VALID,49,VALID,0,
2008-05-19, 01:03:05,VALID,1009.24,VALID,0,VALID,95.4363,VALID,0,VALID,22.9926,VALID,49,VALID,0,
2008-05-19, 01:04:05,VALID,1009.27,VALID,0,VALID,95.4287,VALID,0,VALID,22.9731,VALID,49,VALID,0,
2008-05-19, 01:05:05,VALID,1009.24,VALID,0,VALID,95.4134,VALID,0,VALID,22.9749,VALID,49,VALID,0,
2008-05-19, 01:06:05,VALID,1009.26,VALID,0,VALID,95.3829,VALID,0,VALID,22.9342,VALID,49,VALID,0,
2008-05-19, 01:07:05,VALID,1009.24,VALID,0,VALID,95.4439,VALID,0,VALID,22.9342,VALID,49,VALID,0,
2008-05-19, 01:08:05,VALID,1009.23,VALID,0,VALID,95.4744,VALID,0,VALID,22.9749,VALID,49,VALID,0,
2008-05-19, 01:09:05,VALID,1009.21,VALID,0,VALID,95.4897,VALID,0,VALID,22.9342,VALID,49,VALID,0,
2008-05-19, 01:10:05,VALID,1009.21,VALID,0,VALID,95.5431,VALID,0,VALID,22.9749,VALID,50,VALID,0,
2008-05-19, 01:11:05,VALID,1009.19,VALID,0,VALID,95.5812,VALID,0,VALID,22.9731,VALID,49,VALID,0,
2008-05-19, 01:12:05,VALID,1009.17,VALID,0,VALID,95.5888,VALID,0,VALID,22.9943,VALID,49,VALID,0,
2008-05-19, 01:13:05,VALID,1009.15,VALID,0,VALID,95.6041,VALID,0,VALID,23.0121,VALID,50,VALID,0,
2008-05-19, 01:14:05,VALID,1009.16,VALID,0,VALID,95.6651,VALID,0,VALID,23.0121,VALID,49,VALID,0,
2008-05-19, 01:15:05,VALID,1009.13,VALID,0,VALID,95.7108,VALID,0,VALID,23.0511,VALID,49,VALID,0,
2008-05-19, 01:16:05,VALID,1009.11,VALID,0,VALID,95.6574,VALID,0,VALID,23.0705,VALID,49,VALID,0,
2008-05-19, 01:17:05,VALID,1009.09,VALID,0,VALID,95.6269,VALID,0.105969,VALID,23.0705,VALID,49,VALID,0,
2008-05-19, 01:18:05,VALID,1009.09,VALID,0,VALID,95.6346,VALID,0,VALID,23.0493,VALID,49,VALID,0,
2008-05-19, 01:19:05,VALID,1009.08,VALID,0,VALID,95.6956,VALID,0,VALID,23.1095,VALID,50,VALID,0,
2008-05-19, 01:20:05,VALID,1009.08,VALID,0,VALID,95.6727,VALID,0,VALID,23.1095,VALID,49,VALID,0,
2008-05-19, 01:21:05,VALID,1009.1,VALID,0,VALID,95.6041,VALID,0,VALID,23.0705,VALID,49,VALID,0,
2008-05-19, 01:22:05,VALID,1009.09,VALID,0,VALID,95.5126,VALID,0.105969,VALID,23.0316,VALID,49,VALID,0,
2008-05-19, 01:23:05,VALID,1009.09,VALID,0,VALID,95.5126,VALID,0,VALID,23.0121,VALID,49,VALID,0,
2008-05-19, 01:24:05,VALID,1009.06,VALID,0,VALID,95.5431,VALID,0,VALID,23.0121,VALID,49,VALID,0.296094,
2008-05-19, 01:25:05,VALID,1009.06,VALID,0,VALID,95.5431,VALID,0.105969,VALID,22.9926,VALID,49,VALID,0.326172,
2008-05-19, 01:26:05,VALID,1009.05,VALID,0,VALID,95.5583,VALID,0.105969,VALID,22.9926,VALID,49,VALID,0.0191406,
2008-05-19, 01:27:05,VALID,1009.01,VALID,0,VALID,95.5583,VALID,0.105969,VALID,22.9714,VALID,49,VALID,0,
2008-05-19, 01:28:05,VALID,1008.98,VALID,0,VALID,95.5736,VALID,0.105969,VALID,22.9731,VALID,49,VALID,0,
2008-05-19, 01:29:05,VALID,1008.99,VALID,0,VALID,95.6346,VALID,0.105969,VALID,23.0121,VALID,49,VALID,0.0316406,
2008-05-19, 01:30:05,VALID,1008.98,VALID,0,VALID,95.6269,VALID,0,VALID,23.0121,VALID,49,VALID,0,
2008-05-19, 01:31:05,VALID,1008.97,VALID,0,VALID,95.6727,VALID,0.105969,VALID,23.0121,VALID,49,VALID,0,
2008-05-19, 01:32:05,VALID,1008.97,VALID,0,VALID,95.7185,VALID,0.105969,VALID,23.0511,VALID,49,VALID,0,
2008-05-19, 01:33:05,VALID,1008.96,VALID,0,VALID,95.749,VALID,0.105969,VALID,23.0705,VALID,49,VALID,0,
2008-05-19, 01:34:05,VALID,1008.97,VALID,0,VALID,95.7032,VALID,0,VALID,23.0705,VALID,49,VALID,0,
2008-05-19, 01:35:05,VALID,1008.97,VALID,0,VALID,95.6117,VALID,0,VALID,23.0511,VALID,49,VALID,0,
2008-05-19, 01:36:05,VALID,1008.94,VALID,0,VALID,95.688,VALID,0,VALID,23.0316,VALID,49,VALID,0,
2008-05-19, 01:37:05,VALID,1008.92,VALID,0,VALID,95.6956,VALID,0,VALID,23.0511,VALID,49,VALID,0,
2008-05-19, 01:38:05,VALID,1008.89,VALID,0,VALID,95.6956,VALID,0.105969,VALID,23.0316,VALID,49,VALID,0,
2008-05-19, 01:39:05,VALID,1008.9,VALID,0,VALID,95.6574,VALID,0.105969,VALID,23.0103,VALID,49,VALID,0,
2008-05-19, 01:40:05,VALID,1008.83,VALID,0,VALID,95.5964,VALID,0.105969,VALID,22.9519,VALID,49,VALID,0,
2008-05-19, 01:41:05,VALID,1008.86,VALID,0,VALID,95.5583,VALID,0.105969,VALID,22.9147,VALID,49,VALID,0,
2008-05-19, 01:42:05,VALID,1008.84,VALID,0,VALID,95.4744,VALID,0,VALID,22.8368,VALID,49,VALID,0,
2008-05-19, 01:43:05,VALID,1008.83,VALID,0,VALID,95.4668,VALID,0,VALID,22.7783,VALID,49,VALID,0,
2008-05-19, 01:44:05,VALID,1008.84,VALID,0,VALID,95.5126,VALID,0.105969,VALID,22.7588,VALID,49,VALID,0.110547,
2008-05-19, 01:45:05,VALID,1008.86,VALID,0,VALID,95.5888,VALID,0,VALID,22.7571,VALID,49,VALID,0.0566406,
2008-05-19, 01:46:05,VALID,1008.87,VALID,0,VALID,95.6574,VALID,0,VALID,22.7978,VALID,49,VALID,0,
2008-05-19, 01:47:05,VALID,1008.84,VALID,0,VALID,95.6727,VALID,0,VALID,22.7978,VALID,49,VALID,0,
2008-05-19, 01:48:05,VALID,1008.84,VALID,0,VALID,95.5888,VALID,0,VALID,22.7394,VALID,50,VALID,0.0980469,
2008-05-19, 01:49:05,VALID,1008.84,VALID,0,VALID,95.5354,VALID,0.105969,VALID,22.7199,VALID,49,VALID,0,
2008-05-19, 01:50:05,VALID,1008.83,VALID,0,VALID,95.5202,VALID,0.105969,VALID,22.6809,VALID,49,VALID,0,
2008-05-19, 01:51:05,VALID,1008.85,VALID,0,VALID,95.5202,VALID,0.105969,VALID,22.6614,VALID,49,VALID,0,
2008-05-19, 01:52:05,VALID,1008.85,VALID,0,VALID,95.5431,VALID,0.105969,VALID,22.6208,VALID,49,VALID,0.209375,
2008-05-19, 01:53:05,VALID,1008.85,VALID,0,VALID,95.7108,VALID,0,VALID,22.6809,VALID,49,VALID,0.309766,
2008-05-19, 01:54:05,VALID,1008.86,VALID,0,VALID,95.8481,VALID,0.105969,VALID,22.7783,VALID,49,VALID,0.208203,
2008-05-19, 01:55:05,VALID,1008.88,VALID,0,VALID,95.8481,VALID,0.105969,VALID,22.7978,VALID,49,VALID,0.143359,
2008-05-19, 01:56:05,VALID,1008.84,VALID,0,VALID,95.7947,VALID,0,VALID,22.7978,VALID,49,VALID,0.00507812,
2008-05-19, 01:57:05,VALID,1008.86,VALID,0,VALID,95.7261,VALID,0,VALID,22.7783,VALID,49,VALID,0.358203,
2008-05-19, 01:58:05,VALID,1008.89,VALID,0,VALID,95.7566,VALID,0,VALID,22.7783,VALID,49,VALID,0.325,
2008-05-19, 01:59:05,VALID,1008.9,VALID,0,VALID,95.81,VALID,0,VALID,22.7978,VALID,49,VALID,0.285156,
2008-05-19, 02:00:05,VALID,1008.93,VALID,0,VALID,95.8557,VALID,0,VALID,22.8368,VALID,49,VALID,0.257422,
2008-05-19, 02:01:05,VALID,1008.94,VALID,0,VALID,95.7947,VALID,0.105969,VALID,22.8368,VALID,49,VALID,0.252344,
2008-05-19, 02:02:05,VALID,1008.94,VALID,0,VALID,95.7795,VALID,0,VALID,22.7978,VALID,47,VALID,0.322266,
2008-05-19, 02:03:05,VALID,1008.95,VALID,0,VALID,95.7871,VALID,0.105969,VALID,22.7978,VALID,39,VALID,0.202344,
2008-05-19, 02:04:05,VALID,1008.95,VALID,0,VALID,95.7642,VALID,0,VALID,22.7588,VALID,39,VALID,0.0648438,
2008-05-19, 02:05:05,VALID,1008.94,VALID,0,VALID,95.7185,VALID,0.105969,VALID,22.7588,VALID,39,VALID,0.188672,
2008-05-19, 02:06:05,VALID,1008.88,VALID,0,VALID,95.7566,VALID,0,VALID,22.7394,VALID,39,VALID,0.180859,
2008-05-19, 02:07:05,VALID,1008.87,VALID,0,VALID,95.7642,VALID,0.105969,VALID,22.7394,VALID,39,VALID,0.0832031,
2008-05-19, 02:08:04,VALID,1008.86,VALID,0,VALID,95.7261,VALID,0,VALID,22.7004,VALID,39,VALID,0.291016,
2008-05-19, 02:09:04,VALID,1008.89,VALID,0,VALID,95.6803,VALID,0,VALID,22.642,VALID,39,VALID,0.312891,
2008-05-19, 02:10:04,VALID,1008.89,VALID,0,VALID,95.6422,VALID,0.105969,VALID,22.6225,VALID,39,VALID,0.277734,
2008-05-19, 02:11:04,VALID,1008.92,VALID,0,VALID,95.6574,VALID,0.105969,VALID,22.5835,VALID,39,VALID,0.4125,
2008-05-19, 02:12:04,VALID,1008.96,VALID,0,VALID,95.6574,VALID,0.105969,VALID,22.5234,VALID,39,VALID,0.316016,
2008-05-19, 02:13:04,VALID,1008.95,VALID,0,VALID,95.6956,VALID,0,VALID,22.5446,VALID,39,VALID,0.271484,
2008-05-19, 02:14:04,VALID,1008.94,VALID,0,VALID,95.7261,VALID,0,VALID,22.5446,VALID,39,VALID,0.189063,
2008-05-19, 02:15:04,VALID,1008.95,VALID,0,VALID,95.7718,VALID,0,VALID,22.564,VALID,39,VALID,0.169531,
2008-05-19, 02:16:04,VALID,1008.92,VALID,0,VALID,95.7947,VALID,0,VALID,22.564,VALID,39,VALID,0,
2008-05-19, 02:17:04,VALID,1008.91,VALID,0,VALID,95.7795,VALID,0.105969,VALID,22.564,VALID,39,VALID,0,
2008-05-19, 02:18:04,VALID,1008.89,VALID,0,VALID,95.8023,VALID,0,VALID,22.5835,VALID,39,VALID,0,
2008-05-19, 02:19:04,VALID,1008.87,VALID,0,VALID,95.8328,VALID,0,VALID,22.5835,VALID,39,VALID,0,
2008-05-19, 02:20:04,VALID,1008.85,VALID,0,VALID,95.8328,VALID,0,VALID,22.5835,VALID,39,VALID,0,
2008-05-19, 02:21:04,VALID,1008.83,VALID,0,VALID,95.8252,VALID,0,VALID,22.564,VALID,39,VALID,0.0699219,
2008-05-19, 02:22:04,VALID,1008.83,VALID,0,VALID,95.81,VALID,0,VALID,22.564,VALID,39,VALID,0.0988281,
2008-05-19, 02:23:04,VALID,1008.82,VALID,0,VALID,95.8023,VALID,0,VALID,22.564,VALID,39,VALID,0.148438,
2008-05-19, 02:24:04,VALID,1008.83,VALID,0,VALID,95.7947,VALID,0.105969,VALID,22.564,VALID,39,VALID,0,
2008-05-19, 02:25:04,VALID,1008.82,VALID,0,VALID,95.8176,VALID,0,VALID,22.5446,VALID,39,VALID,0,
2008-05-19, 02:26:04,VALID,1008.82,VALID,0,VALID,95.8252,VALID,0,VALID,22.5446,VALID,39,VALID,0.0621094,
2008-05-19, 02:27:04,VALID,1008.83,VALID,0,VALID,95.8328,VALID,0,VALID,22.5446,VALID,39,VALID,0,
2008-05-19, 02:28:04,VALID,1008.84,VALID,0,VALID,95.8252,VALID,0,VALID,22.5446,VALID,39,VALID,0.0113281,
2008-05-19, 02:29:04,VALID,1008.84,VALID,0,VALID,95.8633,VALID,0,VALID,22.5446,VALID,39,VALID,0.353125,
2008-05-19, 02:30:04,VALID,1008.83,VALID,0,VALID,95.8862,VALID,0,VALID,22.5446,VALID,39,VALID,0.332031,
2008-05-19, 02:31:04,VALID,1008.84,VALID,0,VALID,95.8405,VALID,0,VALID,22.5251,VALID,39,VALID,0.273047,
2008-05-19, 02:32:04,VALID,1008.85,VALID,0,VALID,95.8405,VALID,0,VALID,22.5056,VALID,39,VALID,0.232422,
2008-05-19, 02:33:04,VALID,1008.85,VALID,0,VALID,95.8557,VALID,0,VALID,22.4861,VALID,39,VALID,0.198828,
2008-05-19, 02:34:04,VALID,1008.85,VALID,0,VALID,95.8405,VALID,0,VALID,22.4667,VALID,39,VALID,0.146484,
2008-05-19, 02:35:04,VALID,1008.82,VALID,0,VALID,95.8252,VALID,0,VALID,22.426,VALID,39,VALID,0.202344,
2008-05-19, 02:36:04,VALID,1008.85,VALID,0,VALID,95.8405,VALID,0,VALID,22.4082,VALID,39,VALID,0.139844,
2008-05-19, 02:37:04,VALID,1008.86,VALID,0,VALID,95.8557,VALID,0.105969,VALID,22.4277,VALID,39,VALID,0.149609,
2008-05-19, 02:38:04,VALID,1008.84,VALID,0,VALID,95.8633,VALID,0.105969,VALID,22.4082,VALID,39,VALID,0.115625,
2008-05-19, 02:39:04,VALID,1008.87,VALID,0,VALID,95.8939,VALID,0,VALID,22.4082,VALID,39,VALID,0.112891,
2008-05-19, 02:40:04,VALID,1008.88,VALID,0,VALID,95.9015,VALID,0,VALID,22.4082,VALID,39,VALID,0.0109375,
2008-05-19, 02:41:04,VALID,1008.86,VALID,0,VALID,95.9015,VALID,0.105969,VALID,22.3887,VALID,39,VALID,0,
2008-05-19, 02:42:04,VALID,1008.85,VALID,0,VALID,95.8939,VALID,0,VALID,22.3887,VALID,39,VALID,0,
2008-05-19, 02:43:04,VALID,1008.87,VALID,0,VALID,95.9015,VALID,0,VALID,22.3693,VALID,39,VALID,0,
2008-05-19, 02:44:04,VALID,1008.9,VALID,0,VALID,95.932,VALID,0,VALID,22.3887,VALID,39,VALID,0.283594,
2008-05-19, 02:45:04,VALID,1008.9,VALID,0,VALID,95.9701,VALID,0,VALID,22.3693,VALID,39,VALID,0.254687,
2008-05-19, 02:46:04,VALID,1008.87,VALID,0,VALID,95.9701,VALID,0,VALID,22.3887,VALID,39,VALID,0.11875,
2008-05-19, 02:47:04,VALID,1008.89,VALID,0,VALID,95.9549,VALID,0,VALID,22.3693,VALID,39,VALID,0.157813,
2008-05-19, 02:48:04,VALID,1008.86,VALID,0,VALID,95.9472,VALID,0,VALID,22.3498,VALID,39,VALID,0.225,
2008-05-19, 02:49:04,VALID,1008.84,VALID,0,VALID,95.932,VALID,0,VALID,22.3498,VALID,39,VALID,0.257813,
2008-05-19, 02:50:04,VALID,1008.82,VALID,0,VALID,95.9396,VALID,0,VALID,22.3303,VALID,39,VALID,0.392969,
2008-05-19, 02:51:04,VALID,1008.84,VALID,0,VALID,95.9396,VALID,0,VALID,22.3108,VALID,39,VALID,0.260156,
2008-05-19, 02:52:04,VALID,1008.84,VALID,0,VALID,95.932,VALID,0,VALID,22.2914,VALID,39,VALID,0.272266,
2008-05-19, 02:53:04,VALID,1008.81,VALID,0,VALID,95.9396,VALID,0,VALID,22.293,VALID,39,VALID,0.154687,
2008-05-19, 02:54:04,VALID,1008.8,VALID,0,VALID,95.9701,VALID,0,VALID,22.2914,VALID,39,VALID,0.0117188,
2008-05-19, 02:55:04,VALID,1008.76,VALID,0,VALID,96.0006,VALID,0,VALID,22.2914,VALID,39,VALID,0,
2008-05-19, 02:56:04,VALID,1008.76,VALID,0,VALID,95.993,VALID,0,VALID,22.2719,VALID,39,VALID,0,
2008-05-19, 02:57:04,VALID,1008.7,VALID,0,VALID,96.0006,VALID,0,VALID,22.293,VALID,39,VALID,0,
2008-05-19, 02:58:04,VALID,1008.7,VALID,0,VALID,96.0311,VALID,0.105969,VALID,22.2914,VALID,45,VALID,0.359375,
2008-05-19, 02:59:04,VALID,1008.7,VALID,0,VALID,96.0692,VALID,0,VALID,22.332,VALID,58,VALID,0.436719,
2008-05-19, 03:00:04,VALID,1008.69,VALID,0,VALID,96.0616,VALID,0.105969,VALID,22.3303,VALID,58,VALID,0.326562,
2008-05-19, 03:01:04,VALID,1008.68,VALID,0,VALID,96.0692,VALID,0,VALID,22.3303,VALID,58,VALID,0.492188,
2008-05-19, 03:02:04,VALID,1008.69,VALID,0,VALID,96.0845,VALID,0,VALID,22.3303,VALID,61,VALID,0.525391,
2008-05-19, 03:03:04,VALID,1008.69,VALID,0,VALID,96.0692,VALID,0,VALID,22.3303,VALID,61,VALID,0.219922,
2008-05-19, 03:04:04,VALID,1008.69,VALID,0,VALID,96.0921,VALID,0,VALID,22.3303,VALID,61,VALID,0.358203,
2008-05-19, 03:05:04,VALID,1008.68,VALID,0,VALID,96.0921,VALID,0,VALID,22.3515,VALID,61,VALID,0.205469,
2008-05-19, 03:06:04,VALID,1008.67,VALID,0,VALID,96.0692,VALID,0,VALID,22.3108,VALID,61,VALID,0,
2008-05-19, 03:07:04,VALID,1008.65,VALID,0,VALID,96.115,VALID,0,VALID,22.3498,VALID,93,VALID,0.510547,
2008-05-19, 03:08:04,VALID,1008.65,VALID,0,VALID,96.1455,VALID,0,VALID,22.4099,VALID,91,VALID,0.191406,
2008-05-19, 03:09:04,VALID,1008.65,VALID,0,VALID,96.1302,VALID,0,VALID,22.4099,VALID,91,VALID,0.117188,
2008-05-19, 03:10:04,VALID,1008.61,VALID,0,VALID,96.1379,VALID,0,VALID,22.4082,VALID,91,VALID,0.151953,
2008-05-19, 03:11:04,VALID,1008.65,VALID,0,VALID,96.1455,VALID,0,VALID,22.4082,VALID,91,VALID,0,
2008-05-19, 03:12:04,VALID,1008.66,VALID,0,VALID,96.1074,VALID,0,VALID,22.3887,VALID,91,VALID,0.120703,
2008-05-19, 03:13:04,VALID,1008.63,VALID,0,VALID,96.0997,VALID,0,VALID,22.3887,VALID,91,VALID,0.124219,
2008-05-19, 03:14:04,VALID,1008.64,VALID,0,VALID,96.0845,VALID,0,VALID,22.3498,VALID,91,VALID,0,
2008-05-19, 03:15:04,VALID,1008.65,VALID,0,VALID,96.0769,VALID,0,VALID,22.3498,VALID,91,VALID,0,
2008-05-19, 03:16:04,VALID,1008.67,VALID,0,VALID,96.054,VALID,0,VALID,22.3303,VALID,91,VALID,0.0921875,
2008-05-19, 03:17:04,VALID,1008.67,VALID,0,VALID,96.0997,VALID,0,VALID,22.3108,VALID,91,VALID,0.0320312,
2008-05-19, 03:18:04,VALID,1008.68,VALID,0,VALID,96.0997,VALID,0,VALID,22.3303,VALID,91,VALID,0.105078,
2008-05-19, 03:19:04,VALID,1008.72,VALID,0,VALID,96.1455,VALID,0,VALID,22.3303,VALID,91,VALID,0.203516,
2008-05-19, 03:20:04,VALID,1008.73,VALID,0,VALID,96.1608,VALID,0,VALID,22.3693,VALID,91,VALID,0.210938,
2008-05-19, 03:21:04,VALID,1008.78,VALID,0,VALID,96.1531,VALID,0,VALID,22.3693,VALID,91,VALID,0,
2008-05-19, 03:22:04,VALID,1008.73,VALID,0,VALID,96.1531,VALID,0,VALID,22.3887,VALID,91,VALID,0,
2008-05-19, 03:23:04,VALID,1008.75,VALID,0,VALID,96.115,VALID,0,VALID,22.3498,VALID,91,VALID,0,
2008-05-19, 03:24:04,VALID,1008.75,VALID,0,VALID,96.115,VALID,0,VALID,22.3286,VALID,79,VALID,0.276953,
2008-05-19, 03:25:04,VALID,1008.74,VALID,0,VALID,96.1608,VALID,0,VALID,22.3693,VALID,79,VALID,0.302734,
2008-05-19, 03:26:04,VALID,1008.78,VALID,0,VALID,96.176,VALID,0,VALID,22.3693,VALID,78,VALID,0.361328,
2008-05-19, 03:27:04,VALID,1008.78,VALID,0,VALID,96.1608,VALID,0,VALID,22.3887,VALID,79,VALID,0.16875,
2008-05-19, 03:28:04,VALID,1008.84,VALID,0,VALID,96.1836,VALID,0,VALID,22.3887,VALID,79,VALID,0.10625,
2008-05-19, 03:29:04,VALID,1008.86,VALID,0,VALID,96.176,VALID,0,VALID,22.3887,VALID,79,VALID,0,
2008-05-19, 03:30:04,VALID,1008.89,VALID,0,VALID,96.1836,VALID,0,VALID,22.4082,VALID,79,VALID,0.125781,
2008-05-19, 03:31:04,VALID,1008.88,VALID,0,VALID,96.1836,VALID,0,VALID,22.4082,VALID,79,VALID,0.0121094,
2008-05-19, 03:32:04,VALID,1008.89,VALID,0,VALID,96.1608,VALID,0,VALID,22.3887,VALID,79,VALID,0.190234,
2008-05-19, 03:33:04,VALID,1008.91,VALID,0,VALID,96.176,VALID,0,VALID,22.3887,VALID,79,VALID,0.200391,
2008-05-19, 03:34:04,VALID,1008.88,VALID,0,VALID,96.176,VALID,0,VALID,22.3887,VALID,79,VALID,0.154687,
2008-05-19, 03:35:04,VALID,1008.84,VALID,0,VALID,96.1531,VALID,0,VALID,22.3693,VALID,79,VALID,0.115234,
2008-05-19, 03:36:04,VALID,1008.85,VALID,0,VALID,96.1455,VALID,0,VALID,22.3693,VALID,78,VALID,0,
2008-05-19, 03:37:04,VALID,1008.85,VALID,0,VALID,96.176,VALID,0.105969,VALID,22.3498,VALID,78,VALID,0,
2008-05-19, 03:38:04,VALID,1008.86,VALID,0,VALID,96.176,VALID,0,VALID,22.3693,VALID,79,VALID,0,
2008-05-19, 03:39:04,VALID,1008.84,VALID,0,VALID,96.1531,VALID,0,VALID,22.3693,VALID,79,VALID,0,
2008-05-19, 03:40:04,VALID,1008.87,VALID,0,VALID,96.1913,VALID,0,VALID,22.3693,VALID,79,VALID,0,
2008-05-19, 03:41:04,VALID,1008.9,VALID,0,VALID,96.176,VALID,0.105969,VALID,22.3498,VALID,79,VALID,0,
2008-05-19, 03:42:04,VALID,1008.89,VALID,0,VALID,96.1684,VALID,0,VALID,22.3498,VALID,79,VALID,0,
2008-05-19, 03:43:04,VALID,1008.9,VALID,0,VALID,96.1608,VALID,0,VALID,22.3498,VALID,79,VALID,0,
2008-05-19, 03:44:04,VALID,1008.89,VALID,0,VALID,96.176,VALID,0,VALID,22.3498,VALID,79,VALID,0,
2008-05-19, 03:45:04,VALID,1008.84,VALID,0,VALID,96.1989,VALID,0,VALID,22.3303,VALID,78,VALID,0,
2008-05-19, 03:46:04,VALID,1008.83,VALID,0,VALID,96.1913,VALID,0,VALID,22.3498,VALID,79,VALID,0,
2008-05-19, 03:47:04,VALID,1008.82,VALID,0,VALID,96.1989,VALID,0,VALID,22.3498,VALID,79,VALID,0.230859,
2008-05-19, 03:48:04,VALID,1008.8,VALID,0,VALID,96.2218,VALID,0,VALID,22.3286,VALID,79,VALID,0.217578,
2008-05-19, 03:49:04,VALID,1008.79,VALID,0,VALID,96.2065,VALID,0,VALID,22.3693,VALID,79,VALID,0.279687,
2008-05-19, 03:50:04,VALID,1008.82,VALID,0,VALID,96.2218,VALID,0,VALID,22.3693,VALID,79,VALID,0.147656,